[[{"header":{"parameterUnit":"m.s-1","parameterCategory":1,"la1":30.2991,"la2":30.254,"lo1":-89.0895,"lo2":-89.0444,"dy":0.0017,"dx":0.0017,"nx":28,"ny":28,"refTime":"2024-02-26T09:00:00:Z","depth":0,"parameterNumber":2,"parameterNumberName":"U-component_of_WINDS"},"data":[0,0,0,0,0,0,0,0,0,0,0,0,0,0,0,0,0,0,0,0,0,0,0,0,0,0,0,0,0,0,0,0,0,0,0,0,0,0,0,0,0,0,0,0,0,0,0,0,0,0,0,0,0,0,0,0,0,0,-0.3535,-0.3537,0,-0.3745,-0.3747,-0.375,-0.3859,-0.3859,-0.386,-0.386,-0.4073,-0.4078,-0.4084,0,0,0,0,0,0,0,0,0,0,0,0,0,-0.3228,-0.3233,-0.3535,-0.3538,-0.354,-0.3745,-0.3748,-0.375,-0.3859,-0.3859,-0.386,-0.386,-0.4071,-0.4077,-0.4084,0,0,0,0,0,0,0,0,0,0,0,0,0,-0.3391,-0.3234,-0.3534,-0.3619,-0.3629,-0.3744,-0.3748,-0.3751,-0.3859,-0.3859,-0.386,-0.386,-0.4069,-0.4077,-0.4085,-0.4131,0,0,-0.411,-0.4114,0,0,0,0,0,0,0,0,-0.3382,-0.3403,-0.3604,-0.3614,-0.3625,-0.3776,-0.3717,-0.3879,-0.3859,-0.3772,-0.386,-0.386,-0.3974,-0.399,-0.4029,-0.4141,-0.415,-0.4111,-0.4116,-0.412,-0.4122,0,0,0,0,0,0,0,-0.3371,-0.3394,-0.3618,-0.3607,-0.3619,-0.3647,-0.367,-0.3748,-0.3869,-0.3779,-0.3788,-0.3811,-0.3979,-0.402,-0.4034,-0.4154,-0.4111,-0.4118,-0.4123,-0.4127,-0.4316,-0.4316,0,0,0,0,0,0,-0.3346,-0.3384,-0.3611,-0.3624,-0.3502,-0.3652,-0.3678,-0.3727,-0.3868,-0.389,-0.3811,-0.3816,-0.4006,-0.4025,-0.4042,-0.4107,-0.412,-0.4127,-0.4132,-0.4316,-0.4316,-0.4316,0,0,0,0,0,0,-0.3339,-0.3365,-0.3603,-0.3507,-0.3539,-0.3657,-0.3711,-0.3731,-0.3773,-0.3892,-0.3914,-0.3831,-0.4007,-0.4031,-0.4109,-0.4116,-0.4131,-0.4139,-0.4316,-0.4316,-0.4316,-0.4235,0,0,0,0,0,0,-0.3329,-0.3362,-0.3381,-0.3506,-0.3544,-0.3666,-0.3712,-0.3735,-0.3787,-0.3795,-0.3916,-0.3937,-0.4009,-0.4096,-0.4117,-0.4127,-0.4145,-0.4316,-0.4316,-0.4316,-0.4237,-0.4232,-0.4228,0,0,0,0,0,-0.3318,-0.3349,-0.3381,-0.3408,-0.357,-0.3666,-0.3687,-0.3771,-0.3787,-0.3807,-0.3884,-0.3933,-0.4111,-0.4103,-0.4128,-0.414,-0.4316,-0.4316,-0.4316,-0.424,-0.4233,-0.4228,0,0,0,0,0,0,-0.3221,-0.3367,-0.3404,-0.3477,-0.3558,-0.3684,-0.3712,-0.3761,-0.3839,-0.3843,-0.3942,-0.3969,-0.4038,-0.4097,-0.4085,-0.4193,-0.4218,-0.4223,-0.4152,-0.4147,-0.4142,-0.4126,-0.4152,0,0,0,0,0,-0.3207,-0.3274,-0.3398,-0.345,-0.3489,-0.3593,-0.3638,-0.3695,-0.3783,-0.3818,-0.3901,-0.3984,-0.4059,-0.4106,-0.4182,-0.4247,-0.4275,-0.4268,-0.4263,-0.4258,-0.4261,-0.4301,-0.4299,-0.4316,-0.4316,-0.4316,0,0,-0.3181,-0.3269,-0.3305,-0.3433,-0.3502,-0.3569,-0.3621,-0.3689,-0.3739,-0.3828,-0.3908,-0.3971,-0.407,-0.4142,-0.4178,-0.4193,-0.4263,-0.4258,-0.4254,-0.426,-0.4301,-0.4299,-0.4297,-0.4316,-0.4316,-0.4316,0,0,-0.3167,-0.324,-0.3292,-0.3361,-0.3467,-0.3536,-0.3548,-0.3667,-0.3713,-0.3794,-0.3863,-0.3924,-0.405,-0.4119,-0.417,-0.4182,-0.4231,-0.4204,-0.4179,-0.4216,-0.4214,-0.4214,-0.4219,-0.4219,-0.4207,-0.4207,-0.4207,0,-0.3121,-0.3224,-0.3312,-0.3377,-0.3431,-0.3515,-0.3569,-0.3631,-0.3755,-0.3791,-0.3807,-0.3969,-0.4041,-0.4131,-0.4134,-0.4172,-0.4189,-0.4191,-0.4207,-0.4208,-0.4208,-0.4214,-0.4216,-0.4203,-0.4203,-0.4204,-0.4204,0,-0.3162,-0.3232,-0.3261,-0.338,-0.3438,-0.3496,-0.3593,-0.3641,-0.3692,-0.376,-0.3842,-0.3932,-0.4028,-0.4053,-0.4104,-0.415,-0.4157,-0.4189,-0.4216,-0.4201,-0.4209,-0.4211,-0.4197,-0.4199,-0.42,-0.4201,0,0,-0.3092,-0.326,-0.3269,-0.3324,-0.3447,-0.3503,-0.3565,-0.3659,-0.3698,-0.3781,-0.3836,-0.3941,-0.3972,-0.403,-0.409,-0.4122,-0.4127,-0.4151,-0.4155,-0.4144,-0.4184,-0.4159,-0.416,-0.416,-0.4161,-0.4161,-0.4176,0,-0.3096,-0.3212,-0.3294,-0.3378,-0.3444,-0.3525,-0.358,-0.366,-0.3725,-0.3791,-0.3862,-0.3936,-0.3971,-0.4006,-0.4042,-0.4119,-0.4137,-0.4119,-0.4212,-0.4214,-0.4185,-0.4164,-0.4138,-0.4147,-0.4179,-0.418,-0.418,0,-0.3116,-0.3197,-0.3287,-0.3404,-0.3435,-0.3482,-0.3575,-0.3637,-0.373,-0.3775,-0.384,-0.3902,-0.3971,-0.3992,-0.4088,-0.4074,-0.4117,-0.4161,-0.4163,-0.4175,-0.4196,-0.4176,-0.4152,-0.4153,-0.4185,-0.4185,-0.4184,0,-0.3056,-0.3188,-0.326,-0.3304,-0.3441,-0.3473,-0.3531,-0.3625,-0.3677,-0.3759,-0.3793,-0.3881,-0.3929,-0.3996,-0.4079,-0.4087,-0.4168,-0.4195,-0.4207,-0.4205,-0.422,-0.4218,-0.4203,-0.4247,-0.4247,-0.4247,-0.4247,0,-0.3052,-0.3104,-0.3235,-0.3278,-0.334,-0.3433,-0.3491,-0.3557,-0.364,-0.3698,-0.3773,-0.3826,-0.3933,-0.3999,-0.4065,-0.4135,-0.4156,-0.4194,-0.4211,-0.4188,-0.4183,-0.4217,-0.4219,-0.4247,-0.4247,-0.4247,-0.4247,0,-0.2995,-0.3085,-0.3168,-0.3292,-0.3324,-0.3364,-0.347,-0.3515,-0.3584,-0.3657,-0.3679,-0.3788,-0.3869,-0.3959,-0.407,-0.4115,-0.4181,-0.4205,-0.4149,-0.4159,-0.4166,-0.4164,-0.4173,-0.4179,-0.4217,-0.4216,-0.4216,0,-0.2987,-0.3029,-0.3157,-0.3202,-0.3259,-0.333,-0.3383,-0.3477,-0.3529,-0.364,-0.3672,-0.3759,-0.3834,-0.3961,-0.4049,-0.4135,-0.4162,-0.4159,-0.4175,-0.415,-0.4162,-0.4159,-0.4164,-0.4154,-0.4153,-0.4152,-0.4152,0,-0.2962,-0.3005,-0.3079,-0.3169,-0.3231,-0.3306,-0.3384,-0.3416,-0.3526,-0.3581,-0.3666,-0.3724,-0.3838,-0.3924,-0.4021,-0.4081,-0.4135,-0.4146,-0.4153,-0.413,-0.4096,-0.4115,-0.4137,-0.4145,-0.4146,-0.4146,-0.4147,-0.4147,-0.293,-0.2972,-0.3069,-0.3149,-0.3218,-0.329,-0.3339,-0.3415,-0.3487,-0.3588,-0.3639,-0.3723,-0.3816,-0.3952,-0.4011,-0.4078,-0.4095,-0.4105,-0.4108,-0.4109,-0.4103,-0.4085,-0.4096,-0.4096,-0.4096,-0.4097,-0.4097,0,-0.291,-0.2976,-0.3049,-0.3157,-0.322,-0.3266,-0.3355,-0.3405,-0.3478,-0.3561,-0.3634,-0.3731,-0.3815,-0.391,-0.4,-0.4036,-0.4062,-0.4056,-0.4054,-0.4068,-0.4083,-0.4068,-0.4033,-0.4033,-0.4033,-0.4033,-0.4033,-0.4033,-0.2907,-0.298,-0.3033,-0.3142,-0.3208,-0.3292,-0.3339,-0.3405,-0.3472,-0.3578,-0.3648,-0.371,-0.3798,-0.3895,-0.3974,-0.4,-0.403,-0.4016,-0.4049,-0.4061,-0.4066,-0.4071,-0.4058,-0.4022,-0.4022,-0.4029,-0.4029,-0.4029]},{"header":{"parameterUnit":"m.s-1","parameterCategory":1,"la1":30.2991,"la2":30.254,"lo1":-89.0895,"lo2":-89.0444,"dy":0.0017,"dx":0.0017,"nx":28,"ny":28,"refTime":"2024-02-26T09:00:00:Z","depth":0,"parameterNumber":3,"parameterNumberName":"V-component_of_WINDS"},"data":[0,0,0,0,0,0,0,0,0,0,0,0,0,0,0,0,0,0,0,0,0,0,0,0,0,0,0,0,0,0,0,0,0,0,0,0,0,0,0,0,0,0,0,0,0,0,0,0,0,0,0,0,0,0,0,0,0,0,5.4424,5.4424,0,5.4399,5.4399,5.4399,5.4365,5.4364,5.4363,5.4363,5.4339,5.4339,5.4339,0,0,0,0,0,0,0,0,0,0,0,0,0,5.4446,5.4446,5.4424,5.4424,5.4423,5.4399,5.4399,5.4399,5.4365,5.4364,5.4363,5.4363,5.4339,5.4339,5.4339,0,0,0,0,0,0,0,0,0,0,0,0,0,5.4431,5.4446,5.4424,5.4403,5.4401,5.4399,5.4399,5.4398,5.4365,5.4364,5.4363,5.4362,5.4339,5.4339,5.4339,5.4356,0,0,5.4339,5.4339,0,0,0,0,0,0,0,0,5.4431,5.443,5.4407,5.4405,5.4402,5.4384,5.4398,5.4384,5.4365,5.4379,5.4363,5.4362,5.4355,5.4354,5.4351,5.4354,5.4353,5.4339,5.4339,5.4339,5.4339,0,0,0,0,0,0,0,5.4433,5.4431,5.4414,5.4406,5.4404,5.4397,5.4394,5.4395,5.4372,5.4377,5.4375,5.4372,5.4354,5.4351,5.435,5.4353,5.4339,5.4339,5.4338,5.4338,5.4375,5.4376,0,0,0,0,0,0,5.4436,5.4432,5.4415,5.4413,5.4415,5.4397,5.4394,5.4391,5.4372,5.4368,5.4373,5.4371,5.4352,5.435,5.4349,5.437,5.4339,5.4338,5.4338,5.4374,5.4375,5.4376,0,0,0,0,0,0,5.4437,5.4435,5.4416,5.4422,5.4419,5.4398,5.4395,5.4391,5.4388,5.4369,5.4365,5.4374,5.4351,5.4349,5.4355,5.4369,5.4338,5.4338,5.4372,5.4374,5.4375,5.4411,0,0,0,0,0,0,5.4438,5.4435,5.444,5.4422,5.4419,5.4421,5.4396,5.4391,5.4388,5.4385,5.4369,5.4365,5.435,5.4356,5.4355,5.4368,5.4338,5.4371,5.4373,5.4375,5.4409,5.4414,5.4418,0,0,0,0,0,5.4439,5.445,5.444,5.4439,5.4424,5.4422,5.442,5.4402,5.4389,5.4395,5.4383,5.4366,5.4368,5.4357,5.4356,5.4369,5.437,5.4372,5.4375,5.4406,5.4413,5.4418,0,0,0,0,0,0,5.447,5.4447,5.4436,5.4442,5.4434,5.4416,5.4422,5.4408,5.4403,5.4401,5.4379,5.4376,5.4386,5.4378,5.4366,5.4387,5.4367,5.4369,5.4391,5.4397,5.4401,5.4404,5.4338,0,0,0,0,0,5.4477,5.4476,5.4457,5.4465,5.4462,5.4443,5.4441,5.4428,5.4419,5.4416,5.4404,5.4397,5.4396,5.4396,5.4394,5.4408,5.4406,5.4417,5.4422,5.4425,5.4428,5.4439,5.4445,5.4384,5.4384,5.4384,0,0,5.4493,5.4481,5.4481,5.4471,5.4463,5.4465,5.444,5.4441,5.4443,5.4416,5.4421,5.4413,5.4404,5.4415,5.442,5.4409,5.4445,5.4428,5.4432,5.4432,5.4442,5.4448,5.4453,5.4385,5.4385,5.4385,0,0,5.4522,5.4512,5.4519,5.4512,5.4501,5.449,5.4492,5.4476,5.447,5.4475,5.4456,5.4459,5.4457,5.4453,5.445,5.4484,5.4469,5.4484,5.4508,5.4519,5.4524,5.4529,5.4544,5.4549,5.4486,5.4486,5.4486,0,5.4543,5.4543,5.4524,5.4528,5.4526,5.4502,5.4511,5.4506,5.4495,5.4495,5.4483,5.4484,5.4475,5.4487,5.4496,5.4494,5.4498,5.4485,5.4525,5.4529,5.4533,5.4547,5.4552,5.4488,5.4488,5.4488,5.4487,0,5.4571,5.4572,5.4579,5.4571,5.4569,5.4575,5.4559,5.456,5.4549,5.4539,5.4548,5.4538,5.4535,5.4537,5.4525,5.4549,5.4543,5.4529,5.4508,5.4541,5.4554,5.4559,5.4491,5.449,5.449,5.4489,0,0,5.4617,5.4601,5.4604,5.4601,5.459,5.4591,5.4598,5.4596,5.4599,5.4594,5.4601,5.4602,5.459,5.4588,5.4575,5.4585,5.4617,5.457,5.457,5.4581,5.4647,5.4659,5.4665,5.4607,5.4608,5.4609,5.4649,0,5.4645,5.4655,5.464,5.4655,5.4658,5.4638,5.4645,5.464,5.4632,5.4635,5.4627,5.4629,5.4611,5.461,5.4619,5.4611,5.463,5.4608,5.4617,5.4617,5.4621,5.4672,5.4683,5.4721,5.4653,5.4654,5.4655,0,5.4679,5.4677,5.4692,5.4684,5.4684,5.469,5.469,5.4692,5.4688,5.4682,5.4681,5.4668,5.4677,5.4658,5.4672,5.4658,5.4661,5.4658,5.4659,5.466,5.4638,5.4676,5.4732,5.4739,5.4662,5.4661,5.4661,0,5.4714,5.4715,5.4725,5.4723,5.4713,5.4719,5.4715,5.471,5.4711,5.4711,5.4713,5.4714,5.4715,5.4718,5.4707,5.4693,5.4724,5.4702,5.4722,5.4722,5.4729,5.4729,5.4789,5.4729,5.4729,5.4729,5.4729,0,5.4748,5.4759,5.4741,5.4747,5.476,5.4745,5.4758,5.4753,5.4749,5.4756,5.4739,5.4746,5.473,5.4737,5.4728,5.4744,5.4744,5.4741,5.4739,5.4744,5.4744,5.4746,5.4744,5.473,5.473,5.473,5.4729,0,5.4789,5.4777,5.4788,5.4779,5.4777,5.4787,5.478,5.4787,5.478,5.4789,5.4791,5.478,5.4787,5.4776,5.4782,5.4776,5.4799,5.4792,5.48,5.4799,5.482,5.4819,5.4884,5.4893,5.4826,5.4826,5.4827,0,5.4812,5.482,5.4813,5.4816,5.4814,5.4819,5.4821,5.4808,5.4811,5.481,5.4818,5.4824,5.4828,5.4841,5.4835,5.4841,5.4835,5.4858,5.4836,5.4842,5.4839,5.4839,5.4842,5.4862,5.4863,5.4864,5.4864,0,5.4855,5.485,5.4853,5.4856,5.4859,5.486,5.4861,5.4865,5.4851,5.4857,5.4864,5.4868,5.4875,5.4883,5.4888,5.4886,5.4875,5.4872,5.4877,5.4882,5.4888,5.4888,5.4815,5.487,5.4869,5.4869,5.4869,5.4868,5.4889,5.4897,5.4894,5.49,5.4899,5.4901,5.4908,5.4903,5.4909,5.4914,5.4907,5.4917,5.4918,5.4923,5.4924,5.4934,5.4925,5.4931,5.4933,5.4936,5.4941,5.4886,5.4935,5.4934,5.4934,5.4934,5.4934,0,5.4933,5.4931,5.4937,5.4939,5.4944,5.4933,5.4934,5.494,5.4949,5.4951,5.4956,5.4968,5.4976,5.4972,5.4981,5.499,5.4985,5.4993,5.4993,5.4994,5.4947,5.4943,5.4997,5.4997,5.4997,5.4997,5.4997,5.4997,5.4956,5.497,5.4966,5.4981,5.498,5.499,5.4993,5.4996,5.4997,5.5011,5.5018,5.5015,5.5016,5.5025,5.5034,5.5033,5.5038,5.5048,5.5046,5.5002,5.4996,5.499,5.4986,5.5049,5.5049,5.5092,5.5092,5.5092]}]]